TimeCDT,TemperatureF,Dew PointF,Humidity,Sea Level PressureIn,VisibilityMPH,Wind Direction,Wind SpeedMPH,Gust SpeedMPH,PrecipitationIn,Events,Conditions,WindDirDegrees,DateUTC
12:15 AM,82.8,59.0,44,30.03,10.0,SE,9.2,-,N/A,,Clear,140,2013-08-21 05:15:00
12:35 AM,82.4,59.0,45,30.03,10.0,SE,8.1,-,N/A,,Clear,140,2013-08-21 05:35:00
12:55 AM,81.9,59.2,46,30.03,10.0,SE,9.2,-,N/A,,Clear,140,2013-08-21 05:55:00
1:15 AM,81.1,59.5,48,30.04,10.0,East,9.2,-,N/A,,Clear,90,2013-08-21 06:15:00
1:35 AM,78.6,59.9,52,30.04,10.0,ESE,8.1,-,N/A,,Clear,110,2013-08-21 06:35:00
1:55 AM,79.2,60.1,52,30.04,10.0,East,5.8,-,N/A,,Clear,100,2013-08-21 06:55:00
2:15 AM,78.1,60.3,54,30.04,10.0,ESE,8.1,-,N/A,,Clear,110,2013-08-21 07:15:00
2:35 AM,77.9,60.4,55,30.04,10.0,ESE,6.9,-,N/A,,Clear,110,2013-08-21 07:35:00
2:55 AM,77.0,60.4,56,30.04,10.0,ESE,8.1,-,N/A,,Clear,110,2013-08-21 07:55:00
3:15 AM,78.1,60.3,54,30.04,10.0,NNE,9.2,-,N/A,,Clear,30,2013-08-21 08:15:00
3:35 AM,78.3,60.1,53,30.04,10.0,SE,11.5,-,N/A,,Clear,140,2013-08-21 08:35:00
3:55 AM,77.4,60.3,55,30.05,10.0,SSE,9.2,-,N/A,,Clear,150,2013-08-21 08:55:00
4:15 AM,76.5,60.4,58,30.05,10.0,SSE,6.9,-,N/A,,Clear,150,2013-08-21 09:15:00
4:35 AM,76.1,60.8,59,30.05,10.0,SSE,6.9,-,N/A,,Clear,160,2013-08-21 09:35:00
4:55 AM,75.2,61.0,61,30.05,10.0,South,5.8,-,N/A,,Clear,170,2013-08-21 09:55:00
5:15 AM,74.1,61.3,64,30.06,10.0,SSE,6.9,-,N/A,,Clear,160,2013-08-21 10:15:00
5:35 AM,74.3,61.3,64,30.06,10.0,South,4.6,-,N/A,,Clear,170,2013-08-21 10:35:00
5:55 AM,74.7,61.7,64,30.06,10.0,SSE,8.1,-,N/A,,Clear,160,2013-08-21 10:55:00
6:15 AM,74.8,61.7,64,30.07,10.0,SSE,9.2,-,N/A,,Clear,160,2013-08-21 11:15:00
6:35 AM,74.3,61.9,65,30.07,10.0,SSE,8.1,-,N/A,,Clear,160,2013-08-21 11:35:00
6:55 AM,73.8,62.1,67,30.08,10.0,South,6.9,-,N/A,,Clear,170,2013-08-21 11:55:00
7:15 AM,74.5,62.6,66,30.08,10.0,SSE,8.1,-,N/A,,Clear,160,2013-08-21 12:15:00
7:35 AM,75.2,63.5,67,30.09,10.0,SSE,9.2,-,N/A,,Clear,160,2013-08-21 12:35:00
7:55 AM,76.1,64.0,66,30.09,10.0,South,5.8,-,N/A,,Clear,170,2013-08-21 12:55:00
8:15 AM,77.5,64.9,65,30.09,10.0,South,6.9,-,N/A,,Clear,180,2013-08-21 13:15:00
8:35 AM,80.1,65.7,61,30.10,10.0,South,6.9,-,N/A,,Clear,180,2013-08-21 13:35:00
8:55 AM,82.0,66.2,59,30.10,10.0,SSW,5.8,-,N/A,,Clear,200,2013-08-21 13:55:00
9:15 AM,84.9,65.5,52,30.10,10.0,SSW,6.9,-,N/A,,Clear,200,2013-08-21 14:15:00
9:35 AM,86.4,64.4,48,30.10,10.0,SSW,8.1,-,N/A,,Clear,200,2013-08-21 14:35:00
9:55 AM,88.2,62.4,42,30.10,10.0,South,10.4,-,N/A,,Clear,190,2013-08-21 14:55:00
10:15 AM,89.4,61.7,39,30.10,10.0,South,11.5,-,N/A,,Clear,190,2013-08-21 15:15:00
10:35 AM,90.7,61.3,37,30.11,10.0,South,8.1,-,N/A,,Clear,190,2013-08-21 15:35:00
10:55 AM,91.8,60.1,34,30.11,10.0,South,9.2,-,N/A,,Clear,180,2013-08-21 15:55:00
11:15 AM,92.1,60.1,34,30.11,10.0,SSW,6.9,16.1,N/A,,Clear,210,2013-08-21 16:15:00
11:35 AM,93.0,58.8,32,30.11,10.0,SSE,10.4,-,N/A,,Clear,160,2013-08-21 16:35:00
11:55 AM,94.5,56.5,28,30.10,10.0,East,6.9,-,N/A,,Clear,80,2013-08-21 16:55:00
12:15 PM,93.9,54.7,27,30.10,10.0,SSE,10.4,-,N/A,,Scattered Clouds,160,2013-08-21 17:15:00
12:35 PM,95.0,55.4,26,30.09,10.0,SE,4.6,18.4,N/A,,Scattered Clouds,130,2013-08-21 17:35:00
12:55 PM,95.2,55.8,27,30.09,10.0,SE,9.2,18.4,N/A,,Scattered Clouds,140,2013-08-21 17:55:00
1:15 PM,95.2,55.2,26,30.08,10.0,SSW,10.4,17.3,N/A,,Scattered Clouds,200,2013-08-21 18:15:00
1:35 PM,96.6,55.6,25,30.08,10.0,South,15.0,18.4,N/A,,Scattered Clouds,170,2013-08-21 18:35:00
1:55 PM,93.6,54.7,27,30.08,10.0,SE,8.1,-,N/A,,Clear,130,2013-08-21 18:55:00
2:15 PM,96.1,54.1,24,30.07,10.0,South,12.7,17.3,N/A,,Scattered Clouds,170,2013-08-21 19:15:00
2:35 PM,94.6,54.3,26,30.06,10.0,SSW,3.5,9.2,N/A,,Scattered Clouds,200,2013-08-21 19:35:00
2:55 PM,95.9,55.4,26,30.05,10.0,South,4.6,-,N/A,,Scattered Clouds,170,2013-08-21 19:55:00
3:15 PM,96.3,55.9,26,30.05,10.0,SSE,13.8,-,N/A,,Scattered Clouds,150,2013-08-21 20:15:00
3:35 PM,97.2,55.4,25,30.04,10.0,ESE,8.1,19.6,N/A,,Scattered Clouds,120,2013-08-21 20:35:00
3:55 PM,97.2,54.9,24,30.03,10.0,South,6.9,-,N/A,,Scattered Clouds,170,2013-08-21 20:55:00
4:15 PM,97.3,56.1,25,30.03,10.0,SE,10.4,16.1,N/A,,Scattered Clouds,140,2013-08-21 21:15:00
4:35 PM,98.1,56.1,25,30.02,10.0,South,10.4,16.1,N/A,,Scattered Clouds,190,2013-08-21 21:35:00
4:55 PM,94.3,56.5,28,30.02,10.0,SE,10.4,16.1,N/A,,Scattered Clouds,140,2013-08-21 21:55:00
5:15 PM,95.7,57.0,27,30.02,10.0,South,13.8,-,N/A,,Clear,170,2013-08-21 22:15:00
5:35 PM,96.8,57.0,26,30.01,10.0,SSE,11.5,17.3,N/A,,Scattered Clouds,150,2013-08-21 22:35:00
5:55 PM,95.9,56.3,26,30.01,10.0,SE,9.2,-,N/A,,Clear,140,2013-08-21 22:55:00
6:15 PM,95.9,56.1,26,30.01,10.0,SSE,10.4,-,N/A,,Clear,160,2013-08-21 23:15:00
6:35 PM,95.5,54.5,25,30.01,10.0,SSE,8.1,-,N/A,,Clear,160,2013-08-21 23:35:00
6:55 PM,94.8,55.2,26,30.01,10.0,SSE,9.2,-,N/A,,Clear,150,2013-08-21 23:55:00
7:15 PM,93.7,56.1,28,30.01,10.0,SSE,8.1,-,N/A,,Clear,150,2013-08-22 00:15:00
7:35 PM,92.8,57.0,30,30.01,10.0,South,5.8,-,N/A,,Clear,170,2013-08-22 00:35:00
7:55 PM,91.6,58.3,33,30.01,10.0,SSE,6.9,-,N/A,,Clear,150,2013-08-22 00:55:00
8:15 PM,90.1,58.3,34,30.02,10.0,SE,6.9,-,N/A,,Clear,140,2013-08-22 01:15:00
8:35 PM,88.9,59.0,36,30.02,10.0,SE,5.8,-,N/A,,Clear,130,2013-08-22 01:35:00
8:55 PM,88.0,59.5,38,30.03,10.0,ESE,4.6,-,N/A,,Clear,120,2013-08-22 01:55:00
9:15 PM,87.1,59.9,40,30.04,10.0,SE,5.8,-,N/A,,Clear,130,2013-08-22 02:15:00
9:35 PM,86.5,60.1,41,30.05,10.0,SE,6.9,-,N/A,,Clear,130,2013-08-22 02:35:00
9:55 PM,86.0,60.3,42,30.05,10.0,SE,5.8,-,N/A,,Clear,130,2013-08-22 02:55:00
10:15 PM,85.8,60.8,43,30.06,10.0,SE,6.9,-,N/A,,Clear,140,2013-08-22 03:15:00
10:35 PM,85.1,61.2,44,30.06,10.0,SE,6.9,-,N/A,,Clear,140,2013-08-22 03:35:00
10:55 PM,84.6,61.3,45,30.06,10.0,SE,6.9,-,N/A,,Clear,140,2013-08-22 03:55:00
11:15 PM,84.4,61.7,46,30.06,10.0,SE,6.9,-,N/A,,Clear,130,2013-08-22 04:15:00
11:35 PM,83.8,61.7,47,30.07,10.0,SSE,6.9,-,N/A,,Clear,150,2013-08-22 04:35:00
11:55 PM,83.7,61.9,48,30.07,10.0,SSE,8.1,-,N/A,,Clear,150,2013-08-22 04:55:00